| time (UTC) | temp F | wind direction | speed MPH | gust MPH | rain 1hr in | rain 24hr in | rain mn in | humidity % | barometer mb |
| 20260509221937 | 70 | 22 | 6.0 | 9.0 | 0.00 | 0.00 | 0.00 | 29 | 1022.5 |
| 20260509221434 | 69 | 20 | 7.0 | 8.0 | 0.00 | 0.00 | 0.00 | 30 | 1022.6 |
| 20260509220929 | 69 | 0 | 0.0 | 0.0 | 0.00 | 0.00 | 0.00 | 31 | 1022.7 |
| 20260509220426 | 68 | 27 | 4.0 | 7.0 | 0.00 | 0.00 | 0.00 | 30 | 1022.7 |
| 20260509215922 | 67 | 356 | 5.0 | 7.0 | 0.00 | 0.00 | 0.00 | 31 | 1022.8 |
| 20260509215418 | 67 | 333 | 1.0 | 6.0 | 0.00 | 0.00 | 0.00 | 33 | 1023.0 |
| 20260509214915 | 68 | 349 | 3.0 | 3.0 | 0.00 | 0.00 | 0.00 | 30 | 1022.7 |
| 20260509214412 | 68 | 300 | 2.0 | 6.0 | 0.00 | 0.00 | 0.00 | 30 | 1022.6 |
| 20260509213909 | 68 | 21 | 1.0 | 3.0 | 0.00 | 0.00 | 0.00 | 33 | 1022.7 |
| 20260509213405 | 67 | 6 | 2.0 | 5.0 | 0.00 | 0.00 | 0.00 | 33 | 1022.8 |
| 20260509212903 | 66 | 307 | 1.0 | 3.0 | 0.00 | 0.00 | 0.00 | 33 | 1023.0 |
| 20260509212400 | 66 | 308 | 4.0 | 9.0 | 0.00 | 0.00 | 0.00 | 33 | 1022.8 |
| 20260509211856 | 66 | 319 | 2.0 | 5.0 | 0.00 | 0.00 | 0.00 | 31 | 1023.0 |
| 20260509211352 | 65 | 0 | 3.0 | 5.0 | 0.00 | 0.00 | 0.00 | 34 | 1022.8 |
| 20260509210848 | 65 | 338 | 0.0 | 2.0 | 0.00 | 0.00 | 0.00 | 34 | 1023.0 |
| 20260509210346 | 66 | 356 | 0.0 | 1.0 | 0.00 | 0.00 | 0.00 | 34 | 1022.8 |
| 20260509205846 | 67 | 8 | 2.0 | 5.0 | 0.00 | 0.00 | 0.00 | 32 | 1023.0 |
| 20260509205340 | 67 | 16 | 3.0 | 6.0 | 0.00 | 0.00 | 0.00 | 32 | 1023.1 |
| 20260509204837 | 64 | 339 | 3.0 | 3.0 | 0.00 | 0.00 | 0.00 | 33 | 1023.2 |
| 20260509204334 | 64 | 18 | 5.0 | 7.0 | 0.00 | 0.00 | 0.00 | 33 | 1023.2 |
| 20260509203830 | 64 | 345 | 2.0 | 2.0 | 0.00 | 0.00 | 0.00 | 35 | 1023.2 |
| 20260509203327 | 64 | 358 | 3.0 | 3.0 | 0.00 | 0.00 | 0.00 | 34 | 1023.2 |
| 20260509202823 | 64 | 349 | 2.0 | 5.0 | 0.00 | 0.00 | 0.00 | 35 | 1023.1 |
| 20260509202320 | 66 | 355 | 3.0 | 6.0 | 0.00 | 0.00 | 0.00 | 34 | 1023.3 |
| 20260509201819 | 65 | 337 | 2.0 | 2.0 | 0.00 | 0.00 | 0.00 | 35 | 1023.3 |
| 20260509201316 | 65 | 355 | 3.0 | 6.0 | 0.00 | 0.00 | 0.00 | 34 | 1023.2 |
| 20260509200812 | 64 | 0 | 3.0 | 6.0 | 0.00 | 0.00 | 0.00 | 34 | 1023.3 |
| 20260509200308 | 66 | 21 | 4.0 | 7.0 | 0.00 | 0.00 | 0.00 | 33 | 1023.3 |
| 20260509195804 | 68 | 40 | 3.0 | 7.0 | 0.00 | 0.00 | 0.00 | 32 | 1023.3 |
| 20260509195259 | 69 | 349 | 2.0 | 3.0 | 0.00 | 0.00 | 0.00 | 33 | 1023.2 |
| 20260509194759 | 69 | 327 | 1.0 | 5.0 | 0.00 | 0.00 | 0.00 | 33 | 1023.1 |
| 20260509194255 | 67 | 226 | 2.0 | 5.0 | 0.00 | 0.00 | 0.00 | 32 | 1023.4 |
| 20260509193752 | 66 | 347 | 3.0 | 5.0 | 0.00 | 0.00 | 0.00 | 32 | 1023.4 |
| 20260509193247 | 66 | 317 | 1.0 | 3.0 | 0.00 | 0.00 | 0.00 | 32 | 1023.5 |
| 20260509192743 | 65 | 342 | 4.0 | 6.0 | 0.00 | 0.00 | 0.00 | 33 | 1023.5 |
| 20260509192238 | 65 | 328 | 2.0 | 3.0 | 0.00 | 0.00 | 0.00 | 35 | 1023.3 |
| 20260509191734 | 67 | 304 | 3.0 | 5.0 | 0.00 | 0.00 | 0.00 | 35 | 1023.5 |
| 20260509191231 | 64 | 338 | 1.0 | 2.0 | 0.00 | 0.00 | 0.00 | 39 | 1023.5 |
| 20260509190727 | 64 | 336 | 1.0 | 3.0 | 0.00 | 0.00 | 0.00 | 36 | 1023.6 |
| 20260509190224 | 64 | 316 | 2.0 | 7.0 | 0.00 | 0.00 | 0.00 | 35 | 1023.5 |
| 20260509185721 | 65 | 21 | 0.0 | 2.0 | 0.00 | 0.00 | 0.00 | 34 | 1023.6 |
| 20260509185217 | 63 | 349 | 3.0 | 3.0 | 0.00 | 0.00 | 0.00 | 37 | 1023.6 |
| 20260509184715 | 63 | 342 | 0.0 | 1.0 | 0.00 | 0.00 | 0.00 | 37 | 1023.7 |
| 20260509184212 | 64 | 139 | 3.0 | 6.0 | 0.00 | 0.00 | 0.00 | 36 | 1023.6 |
| 20260509183708 | 66 | 242 | 6.0 | 7.0 | 0.00 | 0.00 | 0.00 | 34 | 1023.8 |
| 20260509183203 | 66 | 339 | 3.0 | 6.0 | 0.00 | 0.00 | 0.00 | 34 | 1023.7 |
| 20260509182659 | 65 | 39 | 1.0 | 5.0 | 0.00 | 0.00 | 0.00 | 34 | 1023.6 |
| 20260509182157 | 64 | 17 | 1.0 | 5.0 | 0.00 | 0.00 | 0.00 | 38 | 1023.6 |
| 20260509181654 | 65 | 303 | 1.0 | 3.0 | 0.00 | 0.00 | 0.00 | 36 | 1023.7 |
| 20260509181152 | 65 | 301 | 1.0 | 3.0 | 0.00 | 0.00 | 0.00 | 34 | 1023.8 |
| 20260509180648 | 65 | 312 | 1.0 | 7.0 | 0.00 | 0.00 | 0.00 | 35 | 1023.8 |
| 20260509180144 | 64 | 200 | 4.0 | 6.0 | 0.00 | 0.00 | 0.00 | 37 | 1023.7 |
| 20260509175641 | 64 | 302 | 2.0 | 6.0 | 0.00 | 0.00 | 0.00 | 35 | 1024.0 |
| 20260509175138 | 65 | 2 | 0.0 | 3.0 | 0.00 | 0.00 | 0.00 | 38 | 1024.0 |
| 20260509174634 | 64 | 316 | 0.0 | 5.0 | 0.00 | 0.00 | 0.00 | 36 | 1023.8 |
| 20260509174134 | 62 | 321 | 1.0 | 2.0 | 0.00 | 0.00 | 0.00 | 37 | 1024.0 |
| 20260509173630 | 62 | 8 | 2.0 | 7.0 | 0.00 | 0.00 | 0.00 | 38 | 1023.7 |
| 20260509173126 | 63 | 168 | 4.0 | 6.0 | 0.00 | 0.00 | 0.00 | 35 | 1023.7 |
| 20260509172623 | 63 | 4 | 0.0 | 1.0 | 0.00 | 0.00 | 0.00 | 37 | 1023.8 |
| 20260509172119 | 64 | 315 | 4.0 | 5.0 | 0.00 | 0.00 | 0.00 | 34 | 1024.0 |
| 20260509171615 | 62 | 312 | 1.0 | 3.0 | 0.00 | 0.00 | 0.00 | 37 | 1024.0 |
| 20260509171111 | 62 | 318 | 0.0 | 2.0 | 0.00 | 0.00 | 0.00 | 40 | 1023.8 |
| 20260509170607 | 62 | 340 | 1.0 | 2.0 | 0.00 | 0.00 | 0.00 | 37 | 1024.1 |
| 20260509165602 | 61 | 7 | 3.0 | 5.0 | 0.00 | 0.00 | 0.00 | 37 | 1024.2 |
| 20260509165058 | 62 | 353 | 0.0 | 3.0 | 0.00 | 0.00 | 0.00 | 38 | 1024.2 |
| 20260509164555 | 63 | 315 | 2.0 | 3.0 | 0.00 | 0.00 | 0.00 | 35 | 1024.4 |
| 20260509164050 | 61 | 323 | 3.0 | 5.0 | 0.00 | 0.00 | 0.00 | 38 | 1024.3 |
| 20260509163549 | 61 | 244 | 1.0 | 1.0 | 0.00 | 0.00 | 0.00 | 36 | 1024.4 |
| 20260509163049 | 59 | 323 | 2.0 | 5.0 | 0.00 | 0.00 | 0.00 | 38 | 1024.2 |
| 20260509162546 | 60 | 358 | 0.0 | 5.0 | 0.00 | 0.00 | 0.00 | 39 | 1024.0 |
| 20260509162042 | 60 | 20 | 3.0 | 3.0 | 0.00 | 0.00 | 0.00 | 37 | 1024.0 |
| 20260509161539 | 60 | 18 | 0.0 | 2.0 | 0.00 | 0.00 | 0.00 | 37 | 1024.2 |
| 20260509161039 | 59 | 52 | 2.0 | 6.0 | 0.00 | 0.00 | 0.00 | 37 | 1024.1 |
| 20260509160535 | 59 | 178 | 3.0 | 3.0 | 0.00 | 0.00 | 0.00 | 40 | 1024.2 |
| 20260509160031 | 58 | 15 | 1.0 | 1.0 | 0.00 | 0.00 | 0.00 | 41 | 1024.2 |
| 20260509155527 | 58 | 55 | 3.0 | 6.0 | 0.00 | 0.00 | 0.00 | 41 | 1024.1 |
| 20260509155023 | 59 | 338 | 1.0 | 5.0 | 0.00 | 0.00 | 0.00 | 40 | 1024.1 |
| 20260509154519 | 58 | 28 | 0.0 | 5.0 | 0.00 | 0.00 | 0.00 | 42 | 1024.2 |
| 20260509154017 | 57 | 10 | 2.0 | 2.0 | 0.00 | 0.00 | 0.00 | 41 | 1024.3 |
| 20260509153514 | 57 | 26 | 1.0 | 5.0 | 0.00 | 0.00 | 0.00 | 44 | 1024.3 |
| 20260509153011 | 57 | 7 | 0.0 | 2.0 | 0.00 | 0.00 | 0.00 | 44 | 1024.5 |
| 20260509152506 | 57 | 286 | 0.0 | 3.0 | 0.00 | 0.00 | 0.00 | 44 | 1024.4 |
| 20260509152003 | 56 | 346 | 1.0 | 2.0 | 0.00 | 0.00 | 0.00 | 48 | 1024.4 |
| 20260509151500 | 56 | 37 | 1.0 | 2.0 | 0.00 | 0.00 | 0.00 | 45 | 1024.4 |
| 20260509150958 | 55 | 37 | 1.0 | 6.0 | 0.00 | 0.00 | 0.00 | 44 | 1024.3 |
| 20260509150455 | 55 | 206 | 3.0 | 5.0 | 0.00 | 0.00 | 0.00 | 46 | 1024.5 |
| 20260509145953 | 55 | 5 | 0.0 | 1.0 | 0.00 | 0.00 | 0.00 | 50 | 1024.6 |
| 20260509145448 | 54 | 309 | 1.0 | 2.0 | 0.00 | 0.00 | 0.00 | 53 | 1024.6 |
| 20260509144944 | 52 | 347 | 0.0 | 1.0 | 0.00 | 0.00 | 0.00 | 62 | 1024.5 |
| 20260509144441 | 51 | 358 | 0.0 | 1.0 | 0.00 | 0.00 | 0.00 | 63 | 1024.4 |
| 20260509143938 | 50 | 0 | 1.0 | 2.0 | 0.00 | 0.00 | 0.00 | 61 | 1024.5 |
| 20260509143435 | 49 | 357 | 0.0 | 0.0 | 0.00 | 0.00 | 0.00 | 65 | 1024.5 |
| 20260509142931 | 48 | 359 | 0.0 | 1.0 | 0.00 | 0.00 | 0.00 | 68 | 1024.5 |
| 20260509142428 | 46 | 353 | 0.0 | 0.0 | 0.00 | 0.00 | 0.00 | 71 | 1024.5 |
| 20260509141924 | 44 | 329 | 0.0 | 0.0 | 0.00 | 0.00 | 0.00 | 73 | 1024.5 |
| 20260509141421 | 43 | 338 | 0.0 | 1.0 | 0.00 | 0.00 | 0.00 | 75 | 1024.5 |
| 20260509140918 | 42 | 347 | 0.0 | 0.0 | 0.00 | 0.00 | 0.00 | 81 | 1024.3 |
| 20260509140414 | 41 | 344 | 0.0 | 2.0 | 0.00 | 0.00 | 0.00 | 82 | 1024.2 |
| 20260509135913 | 40 | 349 | 0.0 | 0.0 | 0.00 | 0.00 | 0.00 | 86 | 1024.3 |
| 20260509135410 | 38 | 323 | 0.0 | 1.0 | 0.00 | 0.00 | 0.00 | 86 | 1024.1 |
| 20260509134907 | 36 | 12 | 1.0 | 1.0 | 0.00 | 0.00 | 0.00 | 91 | 1024.3 |
| 20260509134404 | 35 | 327 | 0.0 | 0.0 | 0.00 | 0.00 | 0.00 | 94 | 1024.3 |
| 20260509133901 | 34 | 327 | 0.0 | 2.0 | 0.00 | 0.00 | 0.00 | 95 | 1024.4 |
| 20260509133357 | 33 | 333 | 0.0 | 0.0 | 0.00 | 0.00 | 0.00 | 95 | 1024.2 |
| 20260509132856 | 32 | 332 | 0.0 | 0.0 | 0.00 | 0.00 | 0.00 | 96 | 1024.2 |
| 20260509132354 | 32 | 333 | 0.0 | 0.0 | 0.00 | 0.00 | 0.00 | 96 | 1024.1 |
| 20260509131851 | 32 | 334 | 0.0 | 0.0 | 0.00 | 0.00 | 0.00 | 96 | 1024.0 |
| 20260509131348 | 31 | 334 | 0.0 | 0.0 | 0.00 | 0.00 | 0.00 | 96 | 1024.0 |
| 20260509130844 | 31 | 332 | 0.0 | 0.0 | 0.00 | 0.00 | 0.00 | 96 | 1023.8 |
| 20260509130340 | 31 | 333 | 0.0 | 0.0 | 0.00 | 0.00 | 0.00 | 96 | 1023.8 |
| 20260509125837 | 31 | 349 | 0.0 | 0.0 | 0.00 | 0.00 | 0.00 | 96 | 1023.7 |
| 20260509125333 | 31 | 330 | 0.0 | 0.0 | 0.00 | 0.00 | 0.00 | 95 | 1023.6 |
| 20260509124829 | 31 | 329 | 0.0 | 0.0 | 0.00 | 0.00 | 0.00 | 95 | 1023.4 |
| 20260509124326 | 31 | 342 | 0.0 | 0.0 | 0.00 | 0.00 | 0.00 | 95 | 1023.3 |
| 20260509123825 | 31 | 338 | 0.0 | 0.0 | 0.00 | 0.00 | 0.00 | 95 | 1023.3 |
| 20260509123322 | 31 | 333 | 0.0 | 0.0 | 0.00 | 0.00 | 0.00 | 95 | 1023.2 |
| 20260509122817 | 31 | 293 | 2.0 | 2.0 | 0.00 | 0.00 | 0.00 | 95 | 1023.3 |
| 20260509122314 | 31 | 342 | 0.0 | 2.0 | 0.00 | 0.00 | 0.00 | 95 | 1023.2 |
| 20260509121811 | 31 | 306 | 1.0 | 1.0 | 0.00 | 0.00 | 0.00 | 95 | 1023.2 |
| 20260509121308 | 31 | 330 | 0.0 | 0.0 | 0.00 | 0.00 | 0.00 | 95 | 1023.0 |
| 20260509120807 | 31 | 340 | 0.0 | 0.0 | 0.00 | 0.00 | 0.00 | 95 | 1023.1 |
| 20260509120304 | 31 | 350 | 0.0 | 0.0 | 0.00 | 0.00 | 0.00 | 94 | 1022.7 |
| 20260509115802 | 32 | 329 | 0.0 | 2.0 | 0.00 | 0.00 | 0.00 | 94 | 1022.8 |
| 20260509115258 | 32 | 325 | 0.0 | 0.0 | 0.00 | 0.00 | 0.00 | 94 | 1022.8 |
| 20260509114756 | 32 | 5 | 0.0 | 1.0 | 0.00 | 0.00 | 0.00 | 94 | 1022.7 |
| 20260509114255 | 32 | 329 | 0.0 | 1.0 | 0.00 | 0.00 | 0.00 | 93 | 1022.6 |
| 20260509113754 | 32 | 351 | 0.0 | 0.0 | 0.00 | 0.00 | 0.00 | 93 | 1023.0 |
| 20260509113250 | 32 | 332 | 0.0 | 0.0 | 0.00 | 0.00 | 0.00 | 94 | 1022.8 |
| 20260509112747 | 32 | 345 | 0.0 | 0.0 | 0.00 | 0.00 | 0.00 | 93 | 1022.8 |
| 20260509112244 | 32 | 333 | 0.0 | 1.0 | 0.00 | 0.00 | 0.00 | 93 | 1022.7 |
| 20260509111742 | 32 | 339 | 0.0 | 1.0 | 0.00 | 0.00 | 0.00 | 93 | 1022.7 |
| 20260509111238 | 32 | 333 | 0.0 | 0.0 | 0.00 | 0.00 | 0.00 | 93 | 1022.4 |
| 20260509110735 | 32 | 332 | 0.0 | 0.0 | 0.00 | 0.00 | 0.00 | 93 | 1022.7 |
| 20260509110232 | 32 | 342 | 0.0 | 0.0 | 0.00 | 0.00 | 0.00 | 93 | 1022.6 |
| 20260509105730 | 32 | 322 | 0.0 | 1.0 | 0.00 | 0.00 | 0.00 | 93 | 1022.4 |
| 20260509105227 | 32 | 335 | 0.0 | 0.0 | 0.00 | 0.00 | 0.00 | 93 | 1022.7 |
| 20260509104724 | 32 | 348 | 0.0 | 0.0 | 0.00 | 0.00 | 0.00 | 93 | 1022.7 |
| 20260509104221 | 32 | 321 | 1.0 | 1.0 | 0.00 | 0.00 | 0.00 | 93 | 1022.5 |
| 20260509103719 | 32 | 344 | 0.0 | 0.0 | 0.00 | 0.00 | 0.00 | 92 | 1023.0 |
| 20260509103216 | 32 | 325 | 0.0 | 1.0 | 0.00 | 0.00 | 0.00 | 92 | 1022.6 |
| 20260509102714 | 32 | 325 | 0.0 | 1.0 | 0.00 | 0.00 | 0.00 | 92 | 1022.8 |
| 20260509102211 | 32 | 344 | 0.0 | 0.0 | 0.00 | 0.00 | 0.00 | 92 | 1022.8 |
| 20260509101707 | 32 | 342 | 0.0 | 0.0 | 0.00 | 0.00 | 0.00 | 92 | 1022.6 |
| 20260509101204 | 32 | 343 | 0.0 | 0.0 | 0.00 | 0.00 | 0.00 | 91 | 1022.7 |
| 20260509100701 | 32 | 342 | 0.0 | 0.0 | 0.00 | 0.00 | 0.00 | 91 | 1022.6 |
| 20260509100158 | 33 | 342 | 0.0 | 0.0 | 0.00 | 0.00 | 0.00 | 91 | 1022.7 |
| 20260509095655 | 33 | 338 | 0.0 | 0.0 | 0.00 | 0.00 | 0.00 | 90 | 1022.6 |
| 20260509095153 | 33 | 342 | 0.0 | 0.0 | 0.00 | 0.00 | 0.00 | 90 | 1022.4 |
| 20260509094649 | 33 | 340 | 0.0 | 0.0 | 0.00 | 0.00 | 0.00 | 90 | 1022.6 |
| 20260509094146 | 33 | 338 | 0.0 | 0.0 | 0.00 | 0.00 | 0.00 | 89 | 1022.4 |
| 20260509093644 | 33 | 326 | 0.0 | 0.0 | 0.00 | 0.00 | 0.00 | 89 | 1022.5 |
| 20260509093141 | 33 | 327 | 0.0 | 0.0 | 0.00 | 0.00 | 0.00 | 89 | 1022.4 |
| 20260509092639 | 33 | 322 | 0.0 | 0.0 | 0.00 | 0.00 | 0.00 | 89 | 1022.5 |
| 20260509092137 | 34 | 342 | 0.0 | 0.0 | 0.00 | 0.00 | 0.00 | 89 | 1022.5 |
| 20260509091635 | 34 | 341 | 0.0 | 0.0 | 0.00 | 0.00 | 0.00 | 87 | 1022.3 |
| 20260509091131 | 34 | 340 | 0.0 | 0.0 | 0.00 | 0.00 | 0.00 | 87 | 1022.3 |
| 20260509090629 | 34 | 337 | 0.0 | 0.0 | 0.00 | 0.00 | 0.00 | 88 | 1022.2 |
| 20260509090126 | 34 | 341 | 0.0 | 0.0 | 0.00 | 0.00 | 0.00 | 86 | 1022.4 |
| 20260509085623 | 35 | 342 | 0.0 | 0.0 | 0.00 | 0.00 | 0.00 | 85 | 1022.1 |
| 20260509085119 | 35 | 335 | 0.0 | 0.0 | 0.00 | 0.00 | 0.00 | 85 | 1022.1 |
| 20260509084616 | 35 | 347 | 0.0 | 0.0 | 0.00 | 0.00 | 0.00 | 84 | 1022.0 |
| 20260509084113 | 35 | 349 | 0.0 | 1.0 | 0.00 | 0.00 | 0.00 | 85 | 1022.2 |
| 20260509083611 | 35 | 351 | 1.0 | 1.0 | 0.00 | 0.00 | 0.00 | 84 | 1022.1 |
| 20260509083107 | 36 | 330 | 0.0 | 1.0 | 0.00 | 0.00 | 0.00 | 85 | 1022.2 |
| 20260509082605 | 36 | 0 | 0.0 | 0.0 | 0.00 | 0.00 | 0.00 | 83 | 1022.3 |
| 20260509082101 | 36 | 337 | 0.0 | 2.0 | 0.00 | 0.00 | 0.00 | 84 | 1022.0 |
| 20260509081559 | 37 | 4 | 1.0 | 1.0 | 0.00 | 0.00 | 0.00 | 83 | 1022.1 |
| 20260509081055 | 37 | 348 | 0.0 | 0.0 | 0.00 | 0.00 | 0.00 | 82 | 1022.2 |
| 20260509080553 | 37 | 336 | 0.0 | 0.0 | 0.00 | 0.00 | 0.00 | 82 | 1021.7 |
| 20260509080051 | 38 | 327 | 0.0 | 1.0 | 0.00 | 0.00 | 0.00 | 81 | 1021.7 |
| 20260509075548 | 38 | 346 | 0.0 | 0.0 | 0.00 | 0.00 | 0.00 | 78 | 1021.6 |
| 20260509075046 | 39 | 332 | 0.0 | 0.0 | 0.00 | 0.00 | 0.00 | 79 | 1021.8 |
| 20260509074543 | 40 | 332 | 0.0 | 0.0 | 0.00 | 0.00 | 0.00 | 75 | 1021.6 |
| 20260509074039 | 41 | 334 | 0.0 | 0.0 | 0.00 | 0.00 | 0.00 | 73 | 1021.7 |
| 20260509073536 | 41 | 339 | 0.0 | 1.0 | 0.00 | 0.00 | 0.00 | 71 | 1021.5 |
| 20260509073033 | 41 | 356 | 1.0 | 1.0 | 0.00 | 0.00 | 0.00 | 71 | 1021.5 |
| 20260509072529 | 40 | 342 | 0.0 | 1.0 | 0.00 | 0.00 | 0.00 | 72 | 1021.3 |
| 20260509072026 | 42 | 339 | 0.0 | 0.0 | 0.00 | 0.00 | 0.00 | 70 | 1021.3 |
| 20260509071523 | 42 | 299 | 0.0 | 2.0 | 0.00 | 0.00 | 0.00 | 67 | 1021.2 |
| 20260509071020 | 42 | 351 | 0.0 | 0.0 | 0.00 | 0.00 | 0.00 | 69 | 1021.3 |
| 20260509070518 | 42 | 298 | 1.0 | 2.0 | 0.00 | 0.00 | 0.00 | 70 | 1021.1 |
| 20260509070014 | 41 | 358 | 0.0 | 2.0 | 0.00 | 0.00 | 0.00 | 71 | 1021.3 |
| 20260509065509 | 41 | 2 | 0.0 | 1.0 | 0.00 | 0.00 | 0.00 | 71 | 1021.2 |
| 20260509065005 | 40 | 337 | 0.0 | 0.0 | 0.00 | 0.00 | 0.00 | 73 | 1020.9 |
| 20260509064503 | 40 | 336 | 0.0 | 0.0 | 0.00 | 0.00 | 0.00 | 78 | 1021.2 |
| 20260509064001 | 40 | 340 | 0.0 | 0.0 | 0.00 | 0.00 | 0.00 | 77 | 1021.4 |
| 20260509063456 | 40 | 284 | 1.0 | 1.0 | 0.00 | 0.00 | 0.00 | 76 | 1021.3 |
| 20260509062954 | 40 | 319 | 0.0 | 0.0 | 0.00 | 0.00 | 0.00 | 76 | 1021.5 |
| 20260509062451 | 40 | 332 | 0.0 | 0.0 | 0.00 | 0.00 | 0.00 | 79 | 1021.4 |
| 20260509061948 | 40 | 331 | 0.0 | 0.0 | 0.00 | 0.00 | 0.00 | 77 | 1021.4 |
| 20260509061445 | 40 | 331 | 0.0 | 0.0 | 0.00 | 0.00 | 0.00 | 77 | 1021.3 |
| 20260509060943 | 41 | 331 | 0.0 | 0.0 | 0.00 | 0.00 | 0.00 | 77 | 1021.5 |
| 20260509060440 | 41 | 331 | 0.0 | 0.0 | 0.00 | 0.00 | 0.00 | 78 | 1021.3 |
| 20260509055935 | 41 | 333 | 0.0 | 0.0 | 0.00 | 0.00 | 0.00 | 76 | 1021.4 |
| 20260509055431 | 42 | 330 | 0.0 | 0.0 | 0.00 | 0.00 | 0.00 | 76 | 1021.3 |
| 20260509054927 | 42 | 326 | 0.0 | 0.0 | 0.00 | 0.00 | 0.00 | 75 | 1021.2 |
| 20260509054424 | 42 | 342 | 0.0 | 0.0 | 0.00 | 0.00 | 0.00 | 72 | 1021.3 |
| 20260509053923 | 43 | 353 | 0.0 | 1.0 | 0.00 | 0.00 | 0.00 | 73 | 1021.2 |
| 20260509053420 | 43 | 321 | 0.0 | 0.0 | 0.00 | 0.00 | 0.00 | 74 | 1021.2 |
| 20260509052918 | 43 | 340 | 0.0 | 0.0 | 0.00 | 0.00 | 0.00 | 72 | 1021.1 |
| 20260509052415 | 44 | 13 | 1.0 | 2.0 | 0.00 | 0.00 | 0.00 | 70 | 1020.9 |
| 20260509051913 | 44 | 9 | 1.0 | 1.0 | 0.00 | 0.00 | 0.00 | 69 | 1021.1 |
| 20260509051411 | 45 | 325 | 0.0 | 0.0 | 0.00 | 0.00 | 0.00 | 71 | 1020.8 |
| 20260509050907 | 46 | 327 | 0.0 | 0.0 | 0.00 | 0.00 | 0.00 | 69 | 1020.7 |
| 20260509050404 | 46 | 309 | 1.0 | 3.0 | 0.00 | 0.00 | 0.00 | 64 | 1020.6 |
| 20260509045901 | 46 | 8 | 0.0 | 2.0 | 0.00 | 0.00 | 0.00 | 66 | 1020.6 |
| 20260509045357 | 47 | 324 | 0.0 | 0.0 | 0.00 | 0.00 | 0.00 | 64 | 1020.5 |
| 20260509044855 | 46 | 286 | 1.0 | 2.0 | 0.00 | 0.00 | 0.00 | 65 | 1020.5 |
| 20260509044352 | 47 | 4 | 0.0 | 2.0 | 0.00 | 0.00 | 0.00 | 67 | 1020.4 |
| 20260509043849 | 48 | 37 | 2.0 | 3.0 | 0.00 | 0.00 | 0.00 | 64 | 1020.2 |
| 20260509043344 | 49 | 256 | 1.0 | 2.0 | 0.00 | 0.00 | 0.00 | 61 | 1020.3 |
| 20260509042840 | 49 | 352 | 0.0 | 1.0 | 0.00 | 0.00 | 0.00 | 61 | 1020.4 |
| 20260509042337 | 49 | 23 | 2.0 | 3.0 | 0.00 | 0.00 | 0.00 | 60 | 1020.2 |
| 20260509041834 | 48 | 268 | 2.0 | 3.0 | 0.00 | 0.00 | 0.00 | 64 | 1020.4 |
| 20260509041326 | 49 | 330 | 0.0 | 0.0 | 0.00 | 0.00 | 0.00 | 62 | 1020.2 |
| 20260509040824 | 50 | 349 | 0.0 | 0.0 | 0.00 | 0.00 | 0.00 | 62 | 1020.1 |
| 20260509040321 | 50 | 351 | 1.0 | 1.0 | 0.00 | 0.00 | 0.00 | 54 | 1019.9 |
| 20260509035818 | 50 | 309 | 1.0 | 1.0 | 0.00 | 0.00 | 0.00 | 58 | 1019.8 |
| 20260509035315 | 51 | 280 | 2.0 | 2.0 | 0.00 | 0.00 | 0.00 | 58 | 1019.9 |
| 20260509034811 | 51 | 327 | 0.0 | 1.0 | 0.00 | 0.00 | 0.00 | 56 | 1019.8 |
| 20260509034309 | 53 | 299 | 1.0 | 1.0 | 0.00 | 0.00 | 0.00 | 56 | 1019.7 |
| 20260509033805 | 54 | 15 | 1.0 | 3.0 | 0.00 | 0.00 | 0.00 | 49 | 1019.6 |
| 20260509033303 | 53 | 276 | 3.0 | 3.0 | 0.00 | 0.00 | 0.00 | 59 | 1019.7 |
| 20260509032759 | 54 | 293 | 2.0 | 5.0 | 0.00 | 0.00 | 0.00 | 49 | 1019.4 |
| 20260509032257 | 53 | 280 | 2.0 | 3.0 | 0.00 | 0.00 | 0.00 | 50 | 1019.2 |
| 20260509031754 | 53 | 325 | 0.0 | 1.0 | 0.00 | 0.00 | 0.00 | 55 | 1019.2 |
| 20260509031252 | 54 | 349 | 0.0 | 1.0 | 0.00 | 0.00 | 0.00 | 52 | 1019.2 |
| 20260509030749 | 55 | 335 | 0.0 | 0.0 | 0.00 | 0.00 | 0.00 | 50 | 1019.2 |
| 20260509030247 | 55 | 327 | 0.0 | 2.0 | 0.00 | 0.00 | 0.00 | 51 | 1018.9 |
| 20260509025743 | 56 | 321 | 0.0 | 2.0 | 0.00 | 0.00 | 0.00 | 49 | 1019.2 |
| 20260509025239 | 57 | 307 | 1.0 | 2.0 | 0.00 | 0.00 | 0.00 | 48 | 1018.9 |
| 20260509024734 | 58 | 311 | 1.0 | 2.0 | 0.00 | 0.00 | 0.00 | 35 | 1018.8 |
| 20260509024230 | 59 | 47 | 2.0 | 2.0 | 0.00 | 0.00 | 0.00 | 35 | 1018.8 |
| 20260509023728 | 60 | 316 | 0.0 | 1.0 | 0.00 | 0.00 | 0.00 | 37 | 1018.7 |
| 20260509023225 | 60 | 36 | 2.0 | 2.0 | 0.00 | 0.00 | 0.00 | 31 | 1018.6 |
| 20260509022721 | 61 | 335 | 0.0 | 3.0 | 0.00 | 0.00 | 0.00 | 32 | 1018.5 |
| 20260509022219 | 61 | 344 | 0.0 | 3.0 | 0.00 | 0.00 | 0.00 | 32 | 1018.5 |
| 20260509021715 | 61 | 315 | 3.0 | 3.0 | 0.00 | 0.00 | 0.00 | 31 | 1018.6 |
| 20260509021213 | 61 | 321 | 1.0 | 2.0 | 0.00 | 0.00 | 0.00 | 32 | 1018.6 |
| 20260509020711 | 61 | 53 | 2.0 | 2.0 | 0.00 | 0.00 | 0.00 | 32 | 1018.5 |
| 20260509020207 | 62 | 300 | 2.0 | 3.0 | 0.00 | 0.00 | 0.00 | 33 | 1018.4 |
| 20260509015706 | 61 | 349 | 0.0 | 1.0 | 0.00 | 0.00 | 0.00 | 37 | 1018.6 |
| 20260509015204 | 62 | 345 | 0.0 | 1.0 | 0.00 | 0.00 | 0.00 | 35 | 1018.3 |
| 20260509014700 | 63 | 311 | 3.0 | 6.0 | 0.00 | 0.00 | 0.00 | 34 | 1018.6 |
| 20260509014156 | 64 | 334 | 6.0 | 8.0 | 0.00 | 0.00 | 0.00 | 34 | 1018.3 |
| 20260509013653 | 64 | 11 | 1.0 | 5.0 | 0.00 | 0.00 | 0.00 | 34 | 1018.3 |
| 20260509013149 | 64 | 172 | 3.0 | 5.0 | 0.00 | 0.00 | 0.00 | 35 | 1018.1 |
| 20260509012640 | 64 | 174 | 5.0 | 8.0 | 0.00 | 0.00 | 0.00 | 34 | 1018.3 |
| 20260509012138 | 64 | 6 | 0.0 | 2.0 | 0.00 | 0.00 | 0.00 | 34 | 1018.2 |
| 20260509011636 | 65 | 339 | 1.0 | 3.0 | 0.00 | 0.00 | 0.00 | 33 | 1018.3 |
| 20260509011132 | 64 | 180 | 1.0 | 3.0 | 0.00 | 0.00 | 0.00 | 33 | 1018.2 |
| 20260509010630 | 64 | 37 | 2.0 | 7.0 | 0.00 | 0.00 | 0.00 | 33 | 1017.9 |
| 20260509010126 | 65 | 42 | 3.0 | 5.0 | 0.00 | 0.00 | 0.00 | 33 | 1017.9 |
| 20260509005624 | 65 | 327 | 0.0 | 0.0 | 0.00 | 0.00 | 0.00 | 33 | 1018.1 |
| 20260509005120 | 65 | 325 | 1.0 | 2.0 | 0.00 | 0.00 | 0.00 | 30 | 1018.2 |
| 20260509004616 | 65 | 330 | 1.0 | 2.0 | 0.00 | 0.00 | 0.00 | 29 | 1017.9 |
| 20260509004113 | 65 | 356 | 3.0 | 5.0 | 0.00 | 0.00 | 0.00 | 29 | 1017.8 |
| 20260509003612 | 65 | 295 | 2.0 | 2.0 | 0.00 | 0.00 | 0.00 | 31 | 1018.1 |
| 20260509003109 | 65 | 330 | 1.0 | 3.0 | 0.00 | 0.00 | 0.00 | 28 | 1018.2 |
| 20260509002606 | 65 | 338 | 0.0 | 2.0 | 0.00 | 0.00 | 0.00 | 27 | 1018.2 |
| 20260509002103 | 66 | 283 | 3.0 | 6.0 | 0.00 | 0.00 | 0.00 | 27 | 1018.2 |
| 20260509001601 | 66 | 316 | 1.0 | 2.0 | 0.00 | 0.00 | 0.00 | 29 | 1018.1 |
| 20260509001056 | 66 | 326 | 4.0 | 7.0 | 0.00 | 0.00 | 0.00 | 28 | 1018.3 |
| 20260509000555 | 66 | 22 | 3.0 | 5.0 | 0.00 | 0.00 | 0.00 | 26 | 1018.1 |
| 20260509000051 | 65 | 4 | 5.0 | 10.0 | 0.00 | 0.00 | 0.00 | 29 | 1017.8 |
| 20260508235548 | 66 | 162 | 3.0 | 5.0 | 0.00 | 0.00 | 0.00 | 27 | 1018.1 |
| 20260508235045 | 66 | 316 | 4.0 | 5.0 | 0.00 | 0.00 | 0.00 | 29 | 1018.1 |
| 20260508234542 | 66 | 321 | 2.0 | 2.0 | 0.00 | 0.00 | 0.00 | 31 | 1017.8 |
| 20260508234039 | 66 | 299 | 1.0 | 2.0 | 0.00 | 0.00 | 0.00 | 29 | 1017.7 |
| 20260508233538 | 66 | 333 | 1.0 | 5.0 | 0.00 | 0.00 | 0.00 | 32 | 1017.8 |
| 20260508233035 | 66 | 250 | 0.0 | 1.0 | 0.00 | 0.00 | 0.00 | 32 | 1017.8 |
| 20260508232532 | 66 | 7 | 0.0 | 8.0 | 0.00 | 0.00 | 0.00 | 31 | 1017.8 |
| 20260508232029 | 66 | 6 | 1.0 | 5.0 | 0.00 | 0.00 | 0.00 | 32 | 1017.7 |
| 20260508231527 | 66 | 270 | 2.0 | 7.0 | 0.00 | 0.00 | 0.00 | 33 | 1017.7 |
| 20260508231023 | 67 | 116 | 4.0 | 5.0 | 0.00 | 0.00 | 0.00 | 33 | 1017.5 |
| 20260508230520 | 67 | 334 | 1.0 | 3.0 | 0.00 | 0.00 | 0.00 | 34 | 1017.5 |
| 20260508230017 | 68 | 323 | 1.0 | 2.0 | 0.00 | 0.00 | 0.00 | 35 | 1017.4 |
| 20260508225514 | 68 | 305 | 2.0 | 2.0 | 0.00 | 0.00 | 0.00 | 36 | 1017.4 |
| 20260508225011 | 68 | 334 | 0.0 | 0.0 | 0.00 | 0.00 | 0.00 | 37 | 1017.4 |
| 20260508224509 | 68 | 323 | 0.0 | 1.0 | 0.00 | 0.00 | 0.00 | 36 | 1017.3 |
| 20260508224006 | 68 | 17 | 3.0 | 5.0 | 0.00 | 0.00 | 0.00 | 34 | 1017.2 |
| 20260508223504 | 69 | 238 | 6.0 | 8.0 | 0.00 | 0.00 | 0.00 | 33 | 1017.2 |
| 20260508223001 | 69 | 277 | 2.0 | 3.0 | 0.00 | 0.00 | 0.00 | 33 | 1017.1 |
| 20260508222458 | 68 | 351 | 2.0 | 5.0 | 0.00 | 0.00 | 0.00 | 32 | 1017.3 |